Regional Weather Roundup
Issued by NWS

Home | Current Version | Previous Version | Text Only | Print | Product List | Glossary On
Versions: 1 2 3 4 5 6 7 8 9 10 11 12 13 14 15 16 17 18 19 20 21 22 23 24 25 26 27 28 29 30 31 32 33 34 35 36 37 38 39 40 41 42 43 44 45 46 47 48 49 50
000
ASUS44 KEWX 280303
RWRTX
SOUTH TEXAS REGIONAL WEATHER ROUNDUP
NATIONAL WEATHER SERVICE AUSTIN/SAN ANTONIO TX
1000 PM CDT WED MAY 27 2015

NOTE: "FAIR" INDICATED FEW OR NO CLOUDS BELOW 12,000 FEET WITH NO
SIGNIFICANT WEATHER AND/OR OBSTRUCTIONS TO VISIBILITY.

* - THESE STATIONS ARE NOT NWS OR FAA STATIONS...AND ARE NOT SUBJECT
    TO NWS AND FAA QUALITY CONTROL.

TXZ171-172-183>190-280400-
TEXAS HILL COUNTRY AND EDWARDS PLATEAU

CITY           SKY/WX    TMP DP  RH WIND       PRES   REMARKS
JUNCTION       PTCLDY    77  68  73 SE3       30.02R
*LLANO         MOCLDY    77  73  88 SE6       30.04S
BURNET         MOCLDY    77  71  82 SE7       30.06R
*HORSESHOE BAY MOCLDY    78  72  82 SE7       30.02R
*KERRVILLE     CLOUDY    76  71  84 SE7       30.04R
*FREDERICKSBRG MOCLDY    75  67  74 SE5       30.04R
*ROCKSPRINGS   PTCLDY    75  68  78 S13       30.06R
*BOERNE STAGE    N/A     77  70  78 SE12G18   30.05R
*CASTROVILLE   MOCLDY    79  69  73 SE6       30.01R
HONDO          CLOUDY    79  72  79 SE10      30.01R
*UVALDE        DRIZZLE   78  73  82 E9        29.98S
DEL RIO        CLOUDY    82  69  64 E9        29.94R
LAUGHLIN AFB   CLOUDY    80  73  80 SE10      29.96R
CARRIZO SPRGS  MOCLDY    81  72  74 SE14G21   29.94S
$$

TXZ173-191>194-202-209-217>225-228-280400-
CENTRAL AND SOUTH CENTRAL TEXAS

CITY           SKY/WX    TMP DP  RH WIND       PRES   REMARKS
GEORGETOWN     NOT AVBL
AUSTIN/BERGSTM MOCLDY    77  72  84 SE7       30.02R
AUSTIN/MABRY   MOCLDY    77  71  82 SE5       30.03R
*AUSTIN/EXEC     N/A     75  72  88 SE7       30.03R
*LAGO VISTA    MOCLDY    77  72  84 SE5       30.06R
SAN MARCOS     NOT AVBL
NEW BRAUNFELS  MOCLDY    78  73  84 S15       30.01R
RANDOLPH AFB   MOCLDY    77  73  88 SE13      30.02R
PT SAN ANTONIO CLOUDY    79  72  78 SE12      30.00R
SAN ANTONIO    MOCLDY    79  72  79 SE15      30.02R
STINSON FIELD  CLOUDY    79  73  82 SE12      29.99R
*PLEASANTON    MOCLDY    79  72  78 E10G17    30.00R
*LA GRANGE     CLOUDY    79  74  86 SE7       30.01R
*GIDDINGS      CLOUDY    77  71  82 SE5       30.07R
*GONZALES      CLOUDY    78  74  88 SE10G20   30.01S
$$

TXZ163>164-176>182-195>201-210>213-226-227-235-280400-
SOUTHEAST TEXAS

CITY           SKY/WX    TMP DP  RH WIND       PRES   REMARKS
COLLEGE STN    CLOUDY    79  72  79 S9        30.05R
*BRYAN         CLOUDY    76  74  95 SE6       30.05R
*CALDWELL      CLOUDY    77  73  88 SE6       30.07R
*CROCKETT      NOT AVBL
*BRENHAM       CLOUDY    79  73  83 SE5       30.05R
HUNTSVILLE     MOCLDY    80  71  74 CALM      30.07R
CONROE         MOCLDY    76  69  79 SE6       30.07R
HOUSTON BUSH   PTCLDY    77  70  79 S7        30.06R
HOUSTON HOBBY  PTCLDY    77  72  84 SE6       30.06R
*HOUSTON SW AP PTCLDY    79  77  94 CALM      30.06S
PEARLAND       PTCLDY    77  72  84 E6        30.07R
HOUSTON HOOKS  PTCLDY    78  69  73 S5        30.06R
ELLINGTON FLD  PTCLDY    77  75  94 E3        30.09R
SUGAR LAND     PTCLDY    78  71  79 SE8       30.05R
*HOUSTON EXEC  PTCLDY    77  72  83 SE7       30.06R
*CLEVELAND MUN PTCLDY    75  72  89 S3        30.07R
*WHARTON       PTCLDY    74  71  90 SE6       30.05S
*COLUMBUS      FAIR      76  72  86 SE5       30.03S
$$

TXZ214>216-236>238-280400-
THE UPPER TEXAS COAST

CITY           SKY/WX    TMP DP  RH WIND       PRES   REMARKS
*ORANGE        PTCLDY    75  72  90 CALM      30.09S
PORT ARTHUR    PTCLDY    74  72  93 S5        30.07R
GALVESTON      CLEAR     78  74  87 SE8       30.08R
ANGLETON       PTCLDY    73  72  96 SE5       30.05S
*BAY CITY      PTCLDY    76  74  94 SE5       30.04S
PALACIOS       PTCLDY    78  73  84 E9        30.04R
$$

TXZ229>234-239>247-280400-
TEXAS COASTAL BEND AND RIO GRANDE PLAINS

CITY           SKY/WX    TMP DP  RH WIND       PRES   REMARKS
VICTORIA       CLOUDY    77  74  90 SE8       30.03S
*BEEVILLE      PTCLDY    77  77 100 SE7       30.01R
ROCKPORT       MOCLDY    81  75  82 SE15      30.01R
*PORT ARANSAS  CLOUDY    80  76  88 SE10      30.01R
*PORT LAVACA   PTCLDY    77  74  88 SE9       30.03S
*INGLESIDE     MOCLDY    82  76  83 SE15      30.00S
CORPUS CHRISTI MOCLDY    80  76  87 SE10      30.00S
CORPUS NAS     MOCLDY    81  77  88 SE14      30.01R
*ROBSTOWN      MOCLDY    80  78  96 SE7       30.00S
ALICE          PTCLDY    79  75  87 SE10      29.99S
KINGSVILLE NAS MOCLDY    80  78  94 E8        29.99S
COTULLA        MOCLDY    82  71  69 SE13      29.97R
*FAITH RANCH     N/A     82  73  74 SE13G23   29.94F
LAREDO         MOCLDY    82  74  77 SE13      29.97R
$$

TXZ248>255-280400-
DEEP SOUTH TEXAS

CITY           SKY/WX    TMP DP  RH WIND       PRES   REMARKS
BROWNSVILLE    CLOUDY    81  78  91 E9        29.98S
PORT ISABEL    CLOUDY    82  77  84 SE14      29.98R HX  90
*SOUTH PADRE     N/A    -24 -24 100 S14       29.99R WCI -49
HARLINGEN      CLOUDY    81  78  91 E10       29.97S
*HEBBRONVILLE    N/A     79  73  81 E10       29.99F
MCALLEN        MOCLDY    84  76  76 E10       29.98R HX  93
*WESLACO       PTCLDY    81  75  82 E7        29.97S
FALFURRIAS     PTCLDY    79  75  87 E7        29.98S
EDINBURG       PTCLDY    82  76  82 E8        29.98S
*ZAPATA        PTCLDY    82  72  71 E12       29.94S
$$

TXZ213>215-236>238-242>244-246-247-251-254-255-280400-
CMAN STATIONS

STATION/POSITION TIME  TEMP    WIND        PRES    WAVE
                       AIR SEA DIR/SP/G            HT/PER
                 (UTC) (F)     (DEG/KT/KT) (MB)    (FT/S)
$$

GMZ080-GMZ150>470-280400-
OFFSHORE BUOY REPORTS

STATION/POSITION TIME  TEMP    WIND        PRES    WAVE
                       AIR SEA DIR/SP/G            HT/PER
                 (UTC) (F)     (DEG/KT/KT) (MB)    (FT/S)
$$



USA.gov is the U.S. government's official web portal to all federal, state and local government web resources and services.